TIME,DELAY(SENSOR),PRES,OXYGEN,RAWTEMP,T(OPTODE),TCPHASE,FLUOR,BETA(BETA700),BETA(BETA412),BETA(BETA440),CDOM,C(CSC),ED(ED411.90),ED(ED443.80),ED(ED489.40),ED(ED554.70),LU(LU412.20),LU(LU443.80),LU(LU489.40),LU(LU555.00),COMP,TILTX,TILTY,CHECK
1346449534,5802,904.8900146484375000,169.7281036376953000,410.5390930175781000,10.6566600799560550,38.9786911010742200,51,107,100,81,74,15442,2147452854,2147786130,2147578523,2147819876,2147307419,2147460050,2147746678,2148266834,662,6,14,1031
1346453130,5804,11.1000003814697270,184.8683013916015600,491.0133972167969000,8.1611700057983400,39.2781105041503900,52,107,100,82,74,15428,2147440969,2147795803,2147582564,2147826331,2147308169,2147454116,2147763492,2148277028,1770,6,14,46932
1346456730,5804,13.3000001907348630,192.5316009521484400,501.5075988769531000,7.8329319953918460,38.9608993530273440,51,111,103,81,75,15383,2147436416,2147796918,2147583469,2147829906,2147302107,2147448941,2147762843,2148277193,3209,6,14,39689
1346460330,5804,1363.0000000000000000,195.8069000244140600,503.8276062011719000,7.7602658271789550,38.7938690185546900,51,107,101,82,75,15422,2147437467,2147796224,2147582683,2147830582,2147306916,2147448667,2147763318,2148277220,448,6,14,17026
1346463930,5805,14.3999996185302730,197.2115020751953000,505.2702941894531000,7.7150630950927730,38.7309303283691400,51,108,100,82,76,15419,2147440640,2147796982,2147582153,2147828553,2147303232,2147452507,2147758966,2148276955,294,6,14,61857
1346467530,5803,14.3999996185302730,194.2700042724609400,502.2405090332031000,7.8099808692932130,38.8624000549316400,51,109,102,82,74,15410,2147436425,2147796635,2147585344,2147827245,2147304768,2147451529,2147761993,2148276964,3255,6,14,54000
1346471130,5803,10.6000003814697270,193.5666961669922000,502.6322021484375000,7.7977128028869630,38.9137611389160160,51,109,100,83,75,15413,2147439762,2147797705,2147583250,2147830774,2147306368,2147454528,2147766445,2148275794,2784,6,14,19663
1346474730,5801,14.8000001907348630,194.5823059082031200,504.0349121093750000,7.7537717819213870,38.8750190734863300,51,107,100,83,73,15412,2147435766,2147796973,2147583378,2147831835,2147303186,2147453385,2147757677,2148281435,2718,6,14,40050
1346478330,5803,12.3000001907348630,190.2904968261718800,495.4826049804687500,8.0214710235595700,38.9993896484375000,51,108,101,87,75,15409,2147440877,2147794185,2147585654,2147829403,2147305462,2147453110,2147756854,2148277595,3578,6,14,44733
1346481930,5806,1098.0000000000000000,189.0305023193359400,494.1859130859375000,8.0620183944702150,39.0590515136718750,51,105,103,85,75,15411,2147441307,2147792905,2147582838,2147828973,2147305014,2147454080,2147756928,2148277888,3454,6,14,40447
1346485530,5805,1099.0000000000000000,189.0447998046875000,494.1292114257812500,8.0637922286987300,39.0580215454101560,51,110,100,82,77,15390,2147438454,2147789650,2147582253,2147830061,2147308507,2147451254,2147755785,2148275803,3509,6,14,28529
1346489130,5802,1245.0000000000000000,188.5343017578125000,495.9762878417969000,8.0060300827026370,39.1230392456054700,52,113,102,83,74,15385,2147441088,2147795062,2147581202,2147829577,2147305161,2147454683,2147756004,2148279378,3404,6,14,39282
1346492730,5805,11.5000000000000000,191.0632934570312500,498.3645019531250000,7.9313178062438965,38.9999885559082000,51,111,101,83,75,15388,2147436544,2147792347,2147582656,2147830116,2147303780,2147455277,2147758528,2148279579,201,6,14,54019
1346496330,5804,12.8000001907348630,191.3903045654297000,498.8666992187500000,7.9156041145324710,38.9874992370605500,51,109,102,83,75,15376,2147437330,2147799305,2147583680,2147830006,2147302866,2147455990,2147759844,2148278299,114,6,14,44327
1346499930,5804,11.8999996185302730,191.1802978515625000,499.5884094238281000,7.8930139541625980,39.0144004821777340,50,107,101,82,76,15379,2147437668,2147788480,2147583049,2147830226,2147306971,2147452672,2147756589,2148278528,1204,6,14,39890
1346503530,5801,1006.0000000000000000,192.4736938476562500,500.6304931640625000,7.8603930473327640,38.9494018554687500,51,109,100,82,75,15368,2147440557,2147793856,2147586029,2147833618,2147306934,2147455881,2147758153,2148276772,3561,6,14,44097
1346507130,5806,10.8999996185302730,190.7940979003906200,501.2453918457031000,7.8411421775817870,39.0683708190918000,51,106,100,83,74,15376,2147437110,2147795629,2147583853,2147828096,2147302665,2147450989,2147758528,2148277952,84,6,14,63308
1346510730,5805,13.1999998092651370,190.6273040771484400,499.4666137695312500,7.8968281745910645,39.0475006103515600,52,105,101,83,75,15374,2147438491,2147795538,2147582473,2147830180,2147302765,2147454957,2147756662,2148275529,295,6,14,19169
1346514330,5805,10.0000000000000000,188.3379058837890600,498.7309875488281000,7.9198479652404785,39.1837005615234400,51,122,101,85,76,15398,2147436836,2147796205,2147583350,2147828498,2147305033,2147451739,2147760996,2148275702,70,6,14,8861
1346517930,5805,13.8999996185302730,189.9402008056640600,498.3758850097656000,7.9309620857238770,39.0729484558105500,52,108,103,83,74,15383,2147441865,2147799158,2147584987,2147829577,2147305243,2147452169,2147763611,2148275474,744,6,14,55839
1346521530,5806,1205.0000000000000000,185.3256072998047000,488.2767028808594000,8.2466516494750980,39.2005500793457000,51,107,101,82,74,15390,2147439862,2147794386,2147580653,2147826779,2147304356,2147458477,2147759076,2148275556,3453,6,14,33474
1346525130,5802,11.3999996185302730,184.4313964843750000,487.6987915039062500,8.2646951675415040,39.2503700256347660,51,105,100,81,75,15388,2147439890,2147793088,2147578706,2147826916,2147304539,2147453412,2147759853,2148273974,3210,6,14,48549
1346528730,5804,11.6999998092651370,184.5767059326172000,488.0795898437500000,8.2528057098388670,39.2469406127929700,51,104,101,83,74,15285,2147438308,2147792978,2147582884,2147828324,2147304521,2147452288,2147757010,2148275712,263,6,14,47735
1346532330,5803,11.6000003814697270,183.3699951171875000,489.4926147460937500,8.2086772918701170,39.3520698547363300,51,108,101,82,75,15278,2147439131,2147794797,2147580004,2147828937,2147305984,2147454098,2147757540,2148274541,254,6,14,53800
1346535930,5802,1077.0000000000000000,184.4882965087890600,491.9617004394531000,8.1315412521362300,39.3204383850097660,52,107,102,82,74,15282,2147442230,2147798116,2147579867,2147827309,2147305371,2147451318,2147761124,2148277266,3239,6,14,4817
1346539530,5803,1011.0000000000000000,186.7039947509765600,491.6380004882812500,8.1416540145874020,39.1675300598144500,51,109,100,85,75,15280,2147440731,2147797403,2147582482,2147830226,2147301613,2147454793,2147761380,2148280246,745,6,14,44326
1346543130,5804,1111.0000000000000000,184.7913970947265600,491.7125854492187500,8.1393222808837890,39.2952995300293000,52,107,102,83,76,15277,2147436233,2147793545,2147581302,2147826861,2147306020,2147454939,2147757988,2148278848,3407,6,14,41735
1346546730,5805,1122.0000000000000000,184.8379058837890600,491.1059875488281000,8.1582756042480470,39.2821083068847660,52,108,100,83,75,15376,2147439670,2147791506,2147582902,2147829522,2147305051,2147452169,2147758619,2148277348,9,6,14,14614
1346550330,5804,11.3999996185302730,186.1786956787109400,491.1069030761719000,8.1582469940185550,39.1930999755859400,51,107,103,81,75,15380,2147438043,2147794221,2147583643,2147830235,2147307382,2147453933,2147759881,2148276077,3372,6,14,26716
1346553930,5805,11.8999996185302730,185.4125976562500000,489.9660949707031000,8.1938877105712890,39.2240409851074200,51,108,101,81,76,15375,2147439149,2147796525,2147579693,2147826422,2147303588,2147447936,2147761563,2148279515,3202,6,14,16785
1346557530,5803,11.3999996185302730,184.3818969726562500,490.4876098632812500,8.1775960922241210,39.3019599914550800,51,106,101,82,75,15376,2147437321,2147792850,2147583451,2147825490,2147304164,2147456274,2147755684,2148275291,3365,6,14,28017
1346561130,5804,11.5000000000000000,185.1726989746093800,490.7872009277344000,8.1682367324829100,39.2541999816894500,51,106,100,83,75,15375,2147437476,2147793042,2147580278,2147826925,2147305270,2147454262,2147757595,2148275949,3079,6,14,28712
1346564730,5805,11.3000001907348630,185.1172027587890600,491.5096130371094000,8.1456670761108400,39.2713394165039060,51,107,102,84,74,15375,2147437906,2147794349,2147583250,2147830162,2147306816,2147452918,2147754788,2148274688,369,6,14,33676
1346568330,5804,10.3999996185302730,184.0534973144531200,489.7034912109375000,8.2020912170410160,39.3100509643554700,51,113,101,82,76,15369,2147436141,2147793206,2147579776,2147831506,2147305508,2147450121,2147755684,2148278966,3419,6,14,41105
1346571930,5802,1044.0000000000000000,185.1087951660156200,491.1400146484375000,8.1572151184082030,39.2645301818847660,51,110,100,82,75,15371,2147438738,2147796662,2147583680,2147827145,2147305051,2147453019,2147757065,2148278500,2986,6,14,38331
1346575530,5804,11.8000001907348630,186.2946929931640600,491.4433898925781000,8.1477346420288090,39.1916389465332000,51,109,101,83,75,15369,2147438820,2147792265,2147581732,2147828553,2147307510,2147453046,2147755328,2148275684,2628,6,14,51535
1346579130,5801,11.8999996185302730,186.0137023925781200,491.5696105957031000,8.1437902450561520,39.2121009826660160,51,109,102,82,75,15366,2147439021,2147794240,2147581906,2147830610,2147305188,2147453705,2147758784,2148274660,2706,6,14,20708
1346582730,5804,10.6000003814697270,186.2657012939453000,494.4923095703125000,8.0524358749389650,39.2467994689941400,51,111,100,82,73,15368,2147441179,2147793728,2147582482,2147829540,2147303488,2147452745,2147756434,2148275510,3574,6,14,15599
1346586330,5806,1001.0000000000000000,186.0213012695312500,495.1809082031250000,8.0309057235717770,39.2738304138183600,51,107,101,82,76,15367,2147436306,2147792832,2147584850,2147827474,2147301997,2147452278,2147759424,2148277760,110,6,14,37306
1346589930,5804,11.5000000000000000,188.4848022460937500,495.5014953613281000,8.0208797454833980,39.1179885864257800,51,107,101,83,75,15365,2147442852,2147792310,2147583963,2147828333,2147301924,2147452214,2147761453,2148277494,3074,6,14,35022
1346592656,5804,11.1999998092651370,187.0442047119140600,493.1914062500000000,8.0931062698364260,39.1725807189941400,50,108,103,82,74,15360,2147440246,2147791963,2147581824,2147828864,2147305910,2147457344,2147759067,2148277869,129,6,14,22649
